Regional Weather Roundup
Issued by NWS

Home | Current Version | Previous Version | Text Only | Print | Product List | Glossary Off
Versions: 1 2 3 4 5 6 7 8 9 10 11 12 13 14 15 16 17 18 19 20 21 22 23 24 25 26 27 28 29 30 31 32 33 34 35 36 37 38 39 40 41 42 43 44 45 46 47 48 49 50

000
ASUS43 KMKX 262311
RWRWI

WISCONSIN REGIONAL WEATHER ROUNDUP
NATIONAL WEATHER SERVICE MILWAUKEE/SULLIVAN WI
600 PM CDT WED APR 26 2017

NOTE: "FAIR" INDICATES FEW OR NO CLOUDS BELOW 12,000 FEET WITH NO
SIGNIFICANT WEATHER AND/OR OBSTRUCTIONS TO VISIBILITY.

WIZ001-002-006>008-014>016-023>028-270000-
NORTHWEST WISCONSIN

CITY           SKY/WX    TMP DP  RH WIND       PRES   REMARKS
SUPERIOR ARPT  LGT SNOW  33  32  96 N7        29.58F WCI  27
ASHLAND        LGT SNOW  32  31  96 NE12G23   29.55S VSB 3/4 WCI  23
HAYWARD        LGT SNOW  35  31  85 N9        29.53R FOG     WCI  28
SIREN          LGT RAIN  36  32  88 N15       29.55R WCI  26
CUMBERLAND     CLOUDY    36  32  87 N8        29.54R WCI  29
RICE LAKE      CLOUDY    38  34  85 N9        29.54R WCI  31
CHETEK         CLOUDY    37  35  90 NW6       29.53R WCI  33
LADYSMITH      CLOUDY    37  35  90 NW12      29.52R WCI  30
EAU CLAIRE     CLOUDY    40  36  86 NW10      29.51R WCI  33
MENOMONIE      CLOUDY    40  37  89 NW7       29.52S FOG
NEW RICHMOND   CLOUDY    39  34  84 N12       29.55R WCI  31
OSCEOLA        CLOUDY    38  33  82 N7        29.58R WCI  33
$$

WIZ003>005-009-010-017-018-270000-
NORTH CENTRAL WISCONSIN

CITY           SKY/WX    TMP DP  RH WIND       PRES   REMARKS
MANITOWISH WTR CLOUDY    33  33 100 N6        29.45R FOG     WCI  27
ARBOR VITAE    CLOUDY    37  35  95 N7        29.44R FOG     WCI  31
WOODRUFF       CLOUDY    37  35  95 N7        29.44R FOG     WCI  31
RHINELANDER    CLOUDY    41  41 100 NW6       29.44R FOG
EAGLE RIVER    LGT SNOW  37  37 100 N8        29.43R WCI  31
LAND O LAKES   DRIZZLE   37  37 100 N7        29.45R WCI  31
PHILLIPS       CLOUDY    35  35 100 N5        29.46R WCI  31
TOMAHAWK       CLOUDY    39  38  94 NW6       29.45R FOG     WCI  35
MEDFORD        CLOUDY    40  39  97 NW10      29.45R WCI  34
MERRILL        CLOUDY    44  44 100 NW6       29.44S
$$

WIZ029-030-035-036-043>047-270000-
CENTRAL WISCONSIN

CITY           SKY/WX    TMP DP  RH WIND       PRES   REMARKS
WAUSAU         CLOUDY    48  46  93 W12       29.42R
MOSINEE        CLOUDY    46  46 100 W10       29.45R
MARSHFIELD     CLOUDY    43  40  89 W12       29.45R
STEVENS POINT  CLOUDY    47  45  91 W9        29.46R
WAUPACA        CLOUDY    60  54  80 W10       29.43R
WAUTOMA        CLOUDY    53  50  89 W12       29.45R
WISC RAPIDS    CLOUDY    47  45  93 W7        29.48R
CAMP DOUGLAS   CLOUDY    46  45  93 W9        29.48R
$$

WIZ011>013-019>022-031-037>040-048>050-270000-
NORTHEAST WISCONSIN

CITY           SKY/WX    TMP DP  RH WIND       PRES   REMARKS
ANTIGO         CLOUDY    53  52  98 W9        29.41R FOG
SHAWANO        CLOUDY    65  59  82 SW8       29.40R
OCONTO         CLOUDY    65  58  77 S7        29.40R
STURGEON BAY   CLOUDY    64  58  80 SE13      29.43R
GREEN BAY      CLOUDY    66  60  81 S10G20    29.42R
MANITOWOC      CLOUDY    61  53  75 SE6       29.44R
APPLETON       PTSUNNY   64  54  68 SW13      29.41R
CLINTONVILLE   CLOUDY    63  57  82 SW8       29.40R
OSHKOSH        CLOUDY    65  55  70 SW13      29.42R
$$

WIZ032>034-041-042-053>061-270000-
SOUTHWEST WISCONSIN

CITY           SKY/WX    TMP DP  RH WIND       PRES   REMARKS
LA CROSSE      CLOUDY    46  40  79 W12       29.50R
SPARTA         CLOUDY    44  42  94 W7        29.50R
VIROQUA        CLOUDY    44  43  95 W8        29.50R
BOSCOBEL       CLOUDY    50  44  80 W9        29.50S
PRAIRIE DU CHI CLOUDY    48  42  77 W9        29.51S
PLATTEVILLE    CLOUDY    50  50 100 SW10      29.50F
$$

WIZ056-057-062-063-064-067-068-270000-
SOUTH CENTRAL WISCONSIN

CITY           SKY/WX    TMP DP  RH WIND       PRES   REMARKS
REEDSBURG      CLOUDY    52  52 100 W8        29.47R FOG
BARABOO/DELLS  CLOUDY    55  51  86 SW12      29.46S
LONE ROCK      CLOUDY    52  49  89 W8        29.48S FOG
MINERAL POINT  CLOUDY    50  50 100 W12       29.48F FOG
MADISON        CLOUDY    56  51  84 VRB7      29.45F
MIDDLETON      CLOUDY    55  51  86 SW12G20   29.47F
WATERTOWN      CLOUDY    59  56  89 SW12      29.46S
MONROE         CLOUDY    52  50  93 SW14G21   29.48S
JANESVILLE     CLOUDY    59  55  88 SW10      29.47F
$$

WIZ051-052-058>065-066-070>072-270000-
SOUTHEAST WISCONSIN

CITY           SKY/WX    TMP DP  RH WIND       PRES   REMARKS
MILWAUKEE      CLOUDY    69  56  62 SW14      29.46S
WAUKESHA       CLOUDY    63  54  72 SW12G21   29.47S
MILWAUKEE/TIMM CLOUDY    66  52  59 SW14G25   29.46S
RACINE         CLOUDY    69  55  60 SW8       29.48R
KENOSHA        CLOUDY    67  56  67 SW13      29.48R
FOND DU LAC    PTSUNNY   65  53  65 SW13G21   29.42S
SHEBOYGAN      CLOUDY    67  60  78 SW14      29.43S
WEST BEND      CLOUDY    64  55  72 SW15      29.44F
JUNEAU         CLOUDY    61  55  79 S13       29.46F
$$

LSZ147-162-270000-
LAKE SUPERIOR

STATION/POSITION TIME  TEMP    WIND        PRES    WAVE
                       AIR SEA DIR/SP/G            HT/PER
                 (UTC) (F)     (DEG/KT/KT) (MB)    (FT/S)
DEVILS ISLAND    2300   32      20/ 21/ 26 1001.9F
PORT WING        2240   33      30/ 18/ 22 1002.0S
SAXON HARBOR     2230   34      30/ 21/ 25 1000.0S
$$

LMZ867-665-643>646-270000-
LAKE MICHIGAN

STATION/POSITION TIME  TEMP    WIND        PRES    WAVE
                       AIR SEA DIR/SP/G            HT/PER
                 (UTC) (F)     (DEG/KT/KT) (MB)    (FT/S)
CHAMBERS ISLAND  2230   61     180/  7/ 15  995.3R
N MID LAKE BUOY  2250   41 37  180/ 14/ 16  997.6R   1/ 4
NORTHPORT PIER   2240   53     160/  4/ 10  995.9R
KEWAUNEE LAKESHO 2248   49     170/ 15/ 17  996.4R
SHEBOYGAN LAKESH 2200   56     180/ 16/ 17  996.5R
PORT WASHINGTON  2240   70     250/ 10/ 17  998.0S
MILWAUKEE LAKESH 2250   68     240/ 17/ 19   N/A
S MID LAKE BUOY  2150   50 42  170/  8/ 10  998.7R   1/ 4
KENOSHA   LAKESH 2300   69     230/  9/ 15  998.3
$$

TC  - TEMPERATURE IN CELSIUS
VSB - VISIBILITY IN STATUTE MILES
WCI - WIND CHILL INDEX
HX  - HEAT INDEX




USA.gov is the U.S. government's official web portal to all federal, state and local government web resources and services.